Previsão horária em Barlogi

Hoje, 26 Julho, Segunda-feira

Tempo Temperatura Precipitação Vento Pressão Humidade
00:00 +19°C° 0 mm 2 m/s 749 mmHg 83%
01:00 +19°C° 0 mm 2 m/s 749 mmHg 87%
02:00 +18°C° 0 mm 2 m/s 749 mmHg 87%
03:00 +18°C° 0 mm 2 m/s 749 mmHg 87%
04:00 +18°C° 0 mm 2 m/s 749 mmHg 87%
05:00 +19°C° 0 mm 2 m/s 749 mmHg 82%
06:00 +20°C° 0 mm 3 m/s 749 mmHg 77%
07:00 +22°C° 0 mm 3 m/s 749 mmHg 71%
08:00 +23°C° 0 mm 4 m/s 749 mmHg 66%
09:00 +25°C° 0 mm 4 m/s 749 mmHg 60%
10:00 +26°C° 0 mm 5 m/s 749 mmHg 55%
11:00 +28°C° 0 mm 4 m/s 749 mmHg 52%
12:00 +29°C° 0 mm 4 m/s 748 mmHg 48%
13:00 +30°C° 0 mm 4 m/s 748 mmHg 45%
14:00 +30°C° 0 mm 3 m/s 748 mmHg 49%
15:00 +29°C° 0 mm 2 m/s 748 mmHg 53%
16:00 +28°C° 0 mm 2 m/s 747 mmHg 57%
17:00 +27°C° 0.9 mm 2 m/s 747 mmHg 66%
18:00 +25°C° 0.9 mm 2 m/s 747 mmHg 75%
19:00 +23°C° 0.9 mm 2 m/s 747 mmHg 84%
20:00 +23°C° 0.7 mm 2 m/s 748 mmHg 86%
21:00 +21°C° 0.7 mm 2 m/s 748 mmHg 88%
22:00 +21°C° 0.7 mm 1 m/s 748 mmHg 90%
23:00 +21°C° 0.1 mm 1 m/s 748 mmHg 91%

Amanhã, 27 Julho, Terça-feira

Tempo Temperatura Precipitação Vento Pressão Humidade
00:00 +21°C° 0.1 mm 1 m/s 748 mmHg 92%
01:00 +20°C° 0.1 mm 1 m/s 748 mmHg 93%
02:00 +20°C° 0 mm 1 m/s 748 mmHg 93%
03:00 +18°C° 0 mm 0 m/s 748 mmHg 92%
04:00 +18°C° 0 mm 0 m/s 748 mmHg 92%
05:00 +21°C° 0 mm 1 m/s 748 mmHg 87%
06:00 +22°C° 0 mm 1 m/s 748 mmHg 82%
07:00 +23°C° 0 mm 1 m/s 748 mmHg 78%
08:00 +24°C° 0.1 mm 2 m/s 748 mmHg 75%
09:00 +25°C° 0.1 mm 3 m/s 748 mmHg 72%
10:00 +25°C° 0.1 mm 4 m/s 748 mmHg 69%
11:00 +26°C° 0 mm 3 m/s 748 mmHg 63%
12:00 +27°C° 0 mm 3 m/s 748 mmHg 56%
13:00 +29°C° 0 mm 3 m/s 748 mmHg 50%
14:00 +29°C° 0 mm 3 m/s 748 mmHg 47%
15:00 +29°C° 0 mm 3 m/s 748 mmHg 45%
16:00 +30°C° 0 mm 2 m/s 748 mmHg 43%
17:00 +28°C° 0 mm 2 m/s 748 mmHg 50%
18:00 +27°C° 0 mm 2 m/s 748 mmHg 57%
19:00 +25°C° 0 mm 2 m/s 748 mmHg 64%
20:00 +24°C° 0 mm 2 m/s 748 mmHg 70%
21:00 +21°C° 0 mm 2 m/s 748 mmHg 77%
22:00 +21°C° 0 mm 1 m/s 749 mmHg 83%
23:00 +21°C° 0 mm 1 m/s 749 mmHg 84%

Depois de amanhã, 28 Julho, Quarta-feira

Tempo Temperatura Precipitação Vento Pressão Humidade
00:00 +20°C° 0 mm 1 m/s 749 mmHg 85%
01:00 +20°C° 0 mm 1 m/s 748 mmHg 85%
02:00 +20°C° 0 mm 1 m/s 748 mmHg 85%
03:00 +19°C° 0 mm 1 m/s 748 mmHg 85%
04:00 +18°C° 0 mm 2 m/s 748 mmHg 85%
05:00 +20°C° 0 mm 2 m/s 748 mmHg 77%
06:00 +21°C° 0 mm 3 m/s 748 mmHg 70%
07:00 +24°C° 0 mm 3 m/s 748 mmHg 62%
08:00 +25°C° 0 mm 4 m/s 748 mmHg 57%
09:00 +26°C° 0 mm 5 m/s 748 mmHg 51%
10:00 +28°C° 0 mm 6 m/s 748 mmHg 46%
11:00 +28°C° 0 mm 6 m/s 748 mmHg 43%
12:00 +29°C° 0 mm 6 m/s 748 mmHg 41%
13:00 +29°C° 0 mm 6 m/s 748 mmHg 38%
14:00 +29°C° 0 mm 6 m/s 748 mmHg 40%
15:00 +28°C° 0 mm 5 m/s 748 mmHg 41%
16:00 +27°C° 0 mm 5 m/s 748 mmHg 42%
17:00 +25°C° 0 mm 4 m/s 748 mmHg 51%
18:00 +22°C° 0 mm 4 m/s 748 mmHg 61%
19:00 +20°C° 0 mm 4 m/s 748 mmHg 70%
20:00 +19°C° 0 mm 3 m/s 748 mmHg 74%
21:00 +18°C° 0 mm 3 m/s 748 mmHg 78%
22:00 +17°C° 0 mm 2 m/s 748 mmHg 82%
23:00 +17°C° 0 mm 2 m/s 748 mmHg 86%

29 Julho, Quinta-feira

Tempo Temperatura Precipitação Vento Pressão Humidade
00:00 +16°C° 0 mm 2 m/s 748 mmHg 89%
01:00 +16°C° 0 mm 2 m/s 748 mmHg 93%
02:00 +15°C° 0 mm 2 m/s 748 mmHg 94%
03:00 +15°C° 0 mm 2 m/s 748 mmHg 94%
04:00 +15°C° 0 mm 2 m/s 748 mmHg 95%
05:00 +17°C° 0 mm 3 m/s 748 mmHg 85%
06:00 +19°C° 0 mm 3 m/s 748 mmHg 76%
07:00 +20°C° 0 mm 4 m/s 748 mmHg 67%
08:00 +22°C° 0 mm 4 m/s 748 mmHg 61%
09:00 +23°C° 0 mm 5 m/s 748 mmHg 54%
10:00 +26°C° 0 mm 6 m/s 748 mmHg 48%
11:00 +26°C° 0 mm 6 m/s 748 mmHg 46%
12:00 +26°C° 0 mm 6 m/s 748 mmHg 44%
13:00 +27°C° 0 mm 6 m/s 747 mmHg 42%
14:00 +27°C° 0 mm 6 m/s 747 mmHg 39%
15:00 +27°C° 0 mm 6 m/s 747 mmHg 37%
16:00 +27°C° 0 mm 6 m/s 747 mmHg 35%
17:00 +26°C° 0 mm 5 m/s 747 mmHg 41%
18:00 +25°C° 0 mm 4 m/s 747 mmHg 46%
19:00 +22°C° 0 mm 4 m/s 747 mmHg 52%
20:00 +21°C° 0 mm 3 m/s 747 mmHg 56%
21:00 +19°C° 0 mm 2 m/s 747 mmHg 61%
22:00 +19°C° 0 mm 1 m/s 747 mmHg 65%
23:00 +18°C° 0 mm 1 m/s 747 mmHg 67%

30 Julho, Sexta-feira

Tempo Temperatura Precipitação Vento Pressão Humidade
00:00 +18°C° 0 mm 1 m/s 747 mmHg 68%
01:00 +16°C° 0 mm 1 m/s 746 mmHg 70%
02:00 +16°C° 0 mm 1 m/s 746 mmHg 70%
03:00 +16°C° 0 mm 1 m/s 746 mmHg 70%
04:00 +16°C° 0 mm 2 m/s 746 mmHg 70%
05:00 +17°C° 0 mm 2 m/s 745 mmHg 66%
06:00 +19°C° 0 mm 2 m/s 745 mmHg 62%
07:00 +21°C° 0 mm 3 m/s 744 mmHg 58%
08:00 +22°C° 0 mm 4 m/s 744 mmHg 57%
09:00 +23°C° 0 mm 4 m/s 743 mmHg 57%
10:00 +25°C° 0 mm 5 m/s 743 mmHg 56%
11:00 +25°C° 0.3 mm 5 m/s 742 mmHg 58%
12:00 +25°C° 0.3 mm 5 m/s 742 mmHg 61%
13:00 +24°C° 0.3 mm 6 m/s 741 mmHg 63%
14:00 +26°C° 0.2 mm 6 m/s 741 mmHg 54%
15:00 +27°C° 0.2 mm 7 m/s 742 mmHg 44%
16:00 +28°C° 0.2 mm 8 m/s 742 mmHg 35%
17:00 +26°C° 0 mm 8 m/s 742 mmHg 40%
18:00 +23°C° 0 mm 7 m/s 742 mmHg 45%
19:00 +21°C° 0 mm 7 m/s 743 mmHg 49%
20:00 +19°C° 0 mm 6 m/s 743 mmHg 53%
21:00 +17°C° 0 mm 5 m/s 743 mmHg 57%
22:00 +17°C° 0 mm 4 m/s 743 mmHg 61%
23:00 +15°C° 0 mm 4 m/s 743 mmHg 62%

31 Julho, Sábado

Tempo Temperatura Precipitação Vento Pressão Humidade
00:00 +16°C° 0 mm 3 m/s 744 mmHg 64%
01:00 +14°C° 0 mm 3 m/s 744 mmHg 66%
02:00 +14°C° 0 mm 3 m/s 744 mmHg 67%
03:00 +14°C° 0 mm 4 m/s 743 mmHg 69%
04:00 +14°C° 0 mm 4 m/s 743 mmHg 70%
05:00 +15°C° 0 mm 4 m/s 743 mmHg 67%
06:00 +16°C° 0 mm 5 m/s 743 mmHg 65%
07:00 +17°C° 0 mm 6 m/s 743 mmHg 62%
08:00 +20°C° 0 mm 6 m/s 743 mmHg 57%
09:00 +21°C° 0 mm 7 m/s 743 mmHg 52%
10:00 +23°C° 0 mm 7 m/s 743 mmHg 46%
11:00 +23°C° 0 mm 7 m/s 743 mmHg 47%
12:00 +23°C° 0 mm 7 m/s 743 mmHg 47%
13:00 +23°C° 0 mm 7 m/s 743 mmHg 47%
14:00 +23°C° 0 mm 7 m/s 743 mmHg 48%
15:00 +22°C° 0 mm 7 m/s 743 mmHg 49%
16:00 +22°C° 0 mm 7 m/s 743 mmHg 50%
17:00 +22°C° 0.1 mm 6 m/s 743 mmHg 54%
18:00 +21°C° 0.1 mm 5 m/s 743 mmHg 58%
19:00 +20°C° 0.1 mm 5 m/s 743 mmHg 62%
20:00 +19°C° 0 mm 4 m/s 744 mmHg 66%
21:00 +18°C° 0 mm 4 m/s 744 mmHg 70%
22:00 +17°C° 0 mm 3 m/s 744 mmHg 74%
23:00 +16°C° 0 mm 3 m/s 744 mmHg 76%
Mostrar mais